{"data":{"norad_id":50181,"epoch":"2026-05-25T01:05:19.714848Z","epoch_age_seconds":64367,"freshness":"FRESH","line1":"1 50181U 21125AB  26145.04536707  .00000787  00000+0  67531-4 0  9993","line2":"2 50181  53.2145 266.3548 0001284  89.6582 270.4557 15.08838365248139","mean_motion":15.08838365,"eccentricity":0.0001284,"inclination_deg":53.2145,"raan_deg":266.3548,"arg_perigee_deg":89.6582,"mean_anomaly_deg":270.4557,"bstar":6.7531e-5,"rev_number":24813,"period_min":95.437658095339,"perigee_km":538.8601300259,"apogee_km":540.63664299315,"semimajor_km":6917.8853865095,"source":"CELESTRAK","updated_at":"2026-05-25T13:38:16.867649Z"}}